TIME,DELAY(SENSOR),PRES,OXYGEN,RAWTEMP,T(OPTODE),TCPHASE,FLUOR,BETA(BETA700),BETA(BETA412),BETA(BETA440),CDOM,C(CSC),ED(ED412.20),ED(ED444.00),ED(ED489.60),ED(ED554.30),LU(LU412.10),LU(LU443.90),LU(LU489.70),LU(LU554.70),COMP,TILTX,TILTY,CHECK
1371355865,5808,860.4899902343750000,31.0457305908203120,562.5064086914062000,4.4081921577453610,56.9486694335937500,54,100,98,77,81,15621,0,0,0,0,2147121444,2147773851,2147572562,2147566884,614,2,13,12302
1371359461,5808,932.1199951171875000,33.6611518859863300,570.3823242187500000,4.1636791229248050,56.6008796691894500,54,99,101,78,81,15619,0,0,0,0,2147120009,2147769792,2147570267,2147568219,3201,2,13,20760
1371363061,5810,945.7399902343750000,33.1579818725585940,570.5560302734375000,4.1582832336425780,56.6841583251953100,55,97,100,76,80,15617,0,0,0,0,2147120950,2147768429,2147572333,2147566546,3525,2,13,6054
1371366661,5810,972.7800292968750000,35.0181808471679700,572.7136840820312000,4.0911979675292970,56.4095497131347660,55,98,99,77,81,15619,0,0,0,0,2147121188,2147777444,2147573065,2147564708,341,3,13,14245
1371370261,5811,979.9400024414062000,26.7314701080322270,573.0875244140625000,4.0795760154724120,57.7769508361816400,55,97,100,77,80,15620,0,0,0,0,2147121106,2147769014,2147571492,2147565750,3569,2,13,60221
1371373861,5809,979.0999755859375000,33.6257896423339840,573.3715820312500000,4.0707402229309080,56.6323699951171900,55,97,100,77,80,15618,0,0,0,0,2147119972,2147771611,2147573010,2147569691,201,2,13,49067
1371377461,5809,980.1599731445312000,28.3954906463623050,573.5776977539062000,4.0643267631530760,57.4954109191894500,55,97,108,78,81,15620,0,0,0,0,2147120950,2147764754,2147573513,2147564123,200,2,13,56705
1371381061,5809,980.7299804687500000,31.5138607025146500,573.3441772460938000,4.0715899467468260,56.9752311706543000,55,96,99,77,81,15617,0,0,0,0,2147118683,2147772297,2147572205,2147565531,148,2,13,43987
1371384661,5809,983.9699707031250000,32.3680000305175800,573.3967285156250000,4.0699582099914550,56.8362388610839840,54,95,99,77,80,15616,0,0,0,0,2147118656,2147769563,2147576448,2147567195,3483,2,13,3149
1371388261,5808,978.6099853515625000,32.3469314575195300,574.0576782226562000,4.0493950843811035,56.8433494567871100,55,98,99,77,81,15612,0,0,0,0,2147120310,2147763757,2147569709,2147566720,483,3,13,15830
1371391861,5811,985.5900268554688000,31.2085800170898440,573.9468994140625000,4.0528430938720700,57.0314483642578100,54,97,99,77,81,15617,0,0,0,0,2147119277,2147767634,2147573595,2147567158,205,2,13,17793
1371395461,5809,988.8200073242188000,31.5677604675292970,574.1837768554688000,4.0454711914062500,56.9701385498046900,55,101,100,78,80,15616,0,0,0,0,2147119780,2147771940,2147572086,2147565668,234,2,13,64341
1371399061,5809,991.9899902343750000,31.6719303131103500,573.6544189453125000,4.0619430541992190,56.9494705200195300,55,97,99,78,81,15616,0,0,0,0,2147120484,2147767862,2147572306,2147566939,177,2,13,49694
1371402661,5810,988.7500000000000000,33.7306098937988300,573.1052856445312000,4.0790209770202640,56.6134300231933600,55,96,99,78,81,15615,0,0,0,0,2147119963,2147768576,2147570331,2147565659,3551,2,13,16230
1371406261,5811,989.7299804687500000,29.2711601257324220,573.6937255859375000,4.0607199668884280,57.3468704223632800,54,96,99,77,81,15618,0,0,0,0,2147121024,2147770596,2147570880,2147564964,281,2,13,31140
1371409861,5808,994.3499755859375000,31.8525600433349600,573.3704833984375000,4.0707721710205080,56.9159889221191400,54,98,99,78,81,15614,0,0,0,0,2147120841,2147766720,2147568502,2147567323,101,2,13,54813
1371413461,5810,988.1699829101562000,32.3199081420898440,573.7211914062500000,4.0598640441894530,56.8480186462402340,55,97,100,77,80,15615,0,0,0,0,2147122432,2147766326,2147571044,2147568164,29,2,13,21994
1371417061,5808,997.0300292968750000,31.2222309112548830,573.3632812500000000,4.0709948539733890,57.0201911926269500,55,99,100,78,80,15613,0,0,0,0,2147121426,2147766171,2147573979,2147569106,295,2,13,16764
1371420661,5810,983.4199829101562000,32.1393089294433600,573.6110839843750000,4.0632901191711430,56.8710403442382800,55,97,100,77,79,15610,0,0,0,0,2147121920,2147764059,2147570816,2147564809,500,2,13,47988
1371424261,5809,987.1599731445312000,32.7546997070312500,573.5958251953125000,4.0637650489807130,56.7733993530273440,55,99,100,78,80,15611,0,0,0,0,2147119744,2147767067,2147572818,2147565769,15,3,13,61934
1371427861,5809,991.2000122070312000,33.9380416870117200,573.6901245117188000,4.0608329772949220,56.5853309631347660,54,96,98,77,81,15609,0,0,0,0,2147120749,2147765046,2147569252,2147567506,133,2,13,37919
1371431461,5811,994.1900024414062000,33.2662506103515600,573.4251708984375000,4.0690732002258300,56.6924285888671900,55,97,98,78,82,15609,0,0,0,0,2147122404,2147770834,2147568740,2147567241,3147,2,13,23797
1371435061,5810,990.0800170898438000,34.6177482604980500,574.0333862304688000,4.0501518249511720,56.4841918945312500,55,98,100,78,81,15609,0,0,0,0,2147123876,2147771520,2147575049,2147565641,2402,2,13,12216
1371438661,5809,988.5000000000000000,33.5998306274414060,573.7620849609375000,4.0585899353027340,56.6379890441894500,54,96,99,78,81,15607,0,0,0,0,2147120054,2147774518,2147570422,2147568347,2902,2,13,47083
1371442261,5809,990.8400268554688000,33.9687500000000000,574.1776733398438000,4.0456638336181640,56.5903511047363300,55,97,100,78,80,15605,0,0,0,0,2147121444,2147769334,2147571181,2147566089,281,2,13,36897
1371445861,5810,987.7999877929688000,36.0231018066406250,575.5347290039062000,4.0034370422363280,56.2767410278320300,55,99,99,78,81,15609,0,0,0,0,2147122486,2147772626,2147570578,2147566445,285,2,13,4515
1371449461,5808,985.2399902343750000,36.7053985595703100,574.2310180664062000,4.0440030097961430,56.1608695983886700,55,97,100,78,82,15608,0,0,0,0,2147123227,2147770925,2147574098,2147568841,618,2,13,17934
1371453061,5813,997.2000122070312000,36.4231910705566400,573.7576904296875000,4.0587291717529300,56.1991806030273440,54,100,98,77,81,15609,0,0,0,0,2147123337,2147772754,2147569819,2147567945,664,2,13,60430
1371456661,5810,994.8400268554688000,33.7822608947753900,573.5888061523438000,4.0639820098876950,56.6136589050293000,55,96,100,77,81,15603,0,0,0,0,2147123017,2147768676,2147571693,2147566875,32,3,13,34500
1371460261,5811,988.1699829101562000,35.1362800598144500,573.6605834960938000,4.0617470741271970,56.3930702209472660,55,97,100,78,80,15605,0,0,0,0,2147121673,2147770971,2147567707,2147565878,3034,2,13,47591
1371463861,5808,981.7000122070312000,34.5212593078613300,574.6253051757812000,4.0317358970642090,56.5002288818359400,55,96,100,77,81,15607,0,0,0,0,2147119725,2147765229,2147569920,2147566208,2826,2,13,29469
1371467461,5810,992.4400024414062000,33.8654098510742200,575.2633056640625000,4.0118827819824220,56.6138496398925800,55,97,99,78,81,15605,0,0,0,0,2147122057,2147775707,2147577444,2147568329,3477,2,13,50817
1371471061,5811,989.1300048828125000,35.7859802246093750,573.5753784179688000,4.0643978118896480,56.2912902832031250,56,97,100,78,80,15605,0,0,0,0,2147121572,2147767076,2147568182,2147568283,3511,2,13,55021
1371474661,5809,994.1099853515625000,32.7853584289550800,573.8820800781250000,4.0548591613769530,56.7700309753418000,54,96,100,77,80,15600,0,0,0,0,2147124397,2147767360,2147571209,2147566921,161,2,13,19937
1371478261,5811,994.0200195312500000,33.9415702819824200,573.6987915039062000,4.0605602264404300,56.5882186889648440,56,97,100,77,79,15603,0,0,0,0,2147117074,2147771282,2147572589,2147571236,19,3,13,12748
1371481861,5810,998.9000244140625000,35.1158905029296900,573.3718261718750000,4.0707340240478520,56.3983917236328100,55,97,100,77,80,15602,0,0,0,0,2147121773,2147769755,2147572598,2147566235,140,2,13,64984
1371485461,5812,999.7299804687500000,34.8348197937011700,573.5230712890625000,4.0660247802734375,56.4413414001464840,55,98,99,77,80,15597,0,0,0,0,2147120731,2147773184,2147570697,2147567625,3375,2,13,22049
1371489061,5812,1002.1400146484375000,36.2397689819335940,573.4736938476562000,4.0675621032714840,56.2270088195800800,54,99,99,78,81,15600,0,0,0,0,2147121051,2147770633,2147572854,2147568566,50,2,13,9207
1371492661,5809,1001.7600097656250000,35.3527297973632800,573.4008178710938000,4.0698299407958980,56.3585014343261700,55,97,99,76,79,15602,0,0,0,0,2147121152,2147771894,2147568493,2147567049,355,2,13,46149
1371496261,5809,998.2700195312500000,35.1841812133789060,573.4301757812500000,4.0689158439636230,56.3892593383789060,55,97,100,78,80,15599,0,0,0,0,2147123748,2147770541,2147568457,2147565403,355,2,13,3848
1371499861,5810,998.9000244140625000,33.7214393615722660,573.3986206054688000,4.0698990821838380,56.6211891174316400,55,96,98,78,81,15602,0,0,0,0,2147123026,2147766646,2147573750,2147567058,3539,2,13,49844
1371500156,5810,999.0200195312500000,32.2602500915527340,573.3372192382812000,4.0718097686767580,56.8502693176269500,55,97,98,77,81,15597,0,0,0,0,2147124050,2147772242,2147570605,2147566756,47,2,13,12408
